Time,TemperatureF,DewpointF,PressureIn,WindDirection,WindDirectionDegrees,WindSpeedMPH,WindSpeedGustMPH,Humidity,HourlyPrecipIn,Conditions,Clouds,dailyrainin,SoftwareType,DateUTC
2013-03-08 00:09:00,37.3,31.0,30.33,East,84,0.0,0.0,77,0.00,,,0.00,weatherlink.com 1.10,2013-03-08 06:09:00,
2013-03-08 00:24:00,37.3,31.0,30.33,East,84,0.0,0.0,77,0.00,,,0.00,weatherlink.com 1.10,2013-03-08 06:24:00,
2013-03-08 00:39:00,37.2,31.0,30.33,East,85,0.0,0.0,78,0.00,,,0.00,weatherlink.com 1.10,2013-03-08 06:39:00,
2013-03-08 00:54:00,36.9,31.0,30.33,East,85,0.0,0.0,79,0.00,,,0.00,weatherlink.com 1.10,2013-03-08 06:54:00,
2013-03-08 01:09:00,37.0,31.0,30.34,East,84,0.0,0.0,78,0.00,,,0.00,weatherlink.com 1.10,2013-03-08 07:09:00,
2013-03-08 01:24:00,36.7,31.0,30.34,East,84,0.0,0.0,79,0.00,,,0.00,weatherlink.com 1.10,2013-03-08 07:24:00,
2013-03-08 01:39:00,36.4,30.0,30.34,East,85,0.0,0.0,78,0.00,,,0.00,weatherlink.com 1.10,2013-03-08 07:39:00,
2013-03-08 01:54:00,36.1,31.0,30.34,East,84,0.0,0.0,80,0.00,,,0.00,weatherlink.com 1.10,2013-03-08 07:54:00,
2013-03-08 02:09:00,35.8,30.0,30.35,East,84,0.0,0.0,80,0.00,,,0.00,weatherlink.com 1.10,2013-03-08 08:09:00,
2013-03-08 02:24:00,35.9,30.0,30.35,East,85,0.0,0.0,80,0.00,,,0.00,weatherlink.com 1.10,2013-03-08 08:24:00,
2013-03-08 02:39:00,35.8,30.0,30.35,East,84,0.0,0.0,80,0.00,,,0.00,weatherlink.com 1.10,2013-03-08 08:39:00,
2013-03-08 02:54:00,35.6,30.0,30.35,East,85,0.0,0.0,80,0.00,,,0.00,weatherlink.com 1.10,2013-03-08 08:54:00,
2013-03-08 03:09:00,35.5,30.0,30.36,East,84,0.0,0.0,80,0.00,,,0.00,weatherlink.com 1.10,2013-03-08 09:09:00,
2013-03-08 03:24:00,35.4,30.0,30.35,East,84,1.0,1.0,81,0.00,,,0.00,weatherlink.com 1.10,2013-03-08 09:24:00,
2013-03-08 03:39:00,35.4,30.0,30.35,East,84,0.0,1.0,81,0.00,,,0.00,weatherlink.com 1.10,2013-03-08 09:39:00,
2013-03-08 03:54:00,35.4,30.0,30.35,ENE,70,0.0,2.0,81,0.00,,,0.00,weatherlink.com 1.10,2013-03-08 09:54:00,
2013-03-08 04:09:00,35.1,30.0,30.36,ENE,68,0.0,1.0,81,0.00,,,0.00,weatherlink.com 1.10,2013-03-08 10:09:00,
2013-03-08 04:24:00,34.7,30.0,30.36,ENE,68,0.0,0.0,82,0.00,,,0.00,weatherlink.com 1.10,2013-03-08 10:24:00,
2013-03-08 04:39:00,34.6,30.0,30.35,East,84,0.0,1.0,82,0.00,,,0.00,weatherlink.com 1.10,2013-03-08 10:39:00,
2013-03-08 04:54:00,34.3,30.0,30.36,East,82,0.0,1.0,83,0.00,,,0.00,weatherlink.com 1.10,2013-03-08 10:54:00,
2013-03-08 05:09:00,34.1,30.0,30.36,ENE,72,0.0,1.0,83,0.00,,,0.00,weatherlink.com 1.10,2013-03-08 11:09:00,
2013-03-08 05:25:00,34.0,29.0,30.37,ENE,77,0.0,1.0,83,0.00,,,0.00,weatherlink.com 1.10,2013-03-08 11:25:00,
2013-03-08 05:40:00,33.5,29.0,30.37,ENE,77,0.0,0.0,84,0.00,,,0.00,weatherlink.com 1.10,2013-03-08 11:40:00,
2013-03-08 05:55:00,33.2,29.0,30.38,ENE,77,0.0,0.0,85,0.00,,,0.00,weatherlink.com 1.10,2013-03-08 11:55:00,
2013-03-08 06:10:00,32.7,29.0,30.39,ENE,77,0.0,1.0,85,0.00,,,0.00,weatherlink.com 1.10,2013-03-08 12:10:00,
2013-03-08 06:25:00,32.9,29.0,30.39,ENE,77,0.0,1.0,86,0.00,,,0.00,weatherlink.com 1.10,2013-03-08 12:25:00,
2013-03-08 06:40:00,33.0,29.0,30.40,East,90,0.0,1.0,86,0.00,,,0.00,weatherlink.com 1.10,2013-03-08 12:40:00,
2013-03-08 06:55:00,33.6,30.0,30.40,East,79,1.0,2.0,85,0.00,,,0.00,weatherlink.com 1.10,2013-03-08 12:55:00,
2013-03-08 07:10:00,34.3,30.0,30.41,ENE,63,0.0,1.0,84,0.00,,,0.00,weatherlink.com 1.10,2013-03-08 13:10:00,
2013-03-08 07:25:00,35.5,31.0,30.41,East,86,1.0,1.0,82,0.00,,,0.00,weatherlink.com 1.10,2013-03-08 13:25:00,
2013-03-08 07:40:00,36.8,31.0,30.42,East,81,0.0,1.0,79,0.00,,,0.00,weatherlink.com 1.10,2013-03-08 13:40:00,
2013-03-08 07:55:00,38.0,31.0,30.43,SE,128,0.0,1.0,77,0.00,,,0.00,weatherlink.com 1.10,2013-03-08 13:55:00,
2013-03-08 08:10:00,39.7,32.0,30.42,ESE,112,0.0,2.0,73,0.00,,,0.00,weatherlink.com 1.10,2013-03-08 14:10:00,
2013-03-08 08:25:00,40.7,32.0,30.43,SSE,148,0.0,2.0,71,0.00,,,0.00,weatherlink.com 1.10,2013-03-08 14:25:00,
2013-03-08 08:40:00,41.3,32.0,30.43,ENE,60,3.0,3.0,70,0.00,,,0.00,weatherlink.com 1.10,2013-03-08 14:40:00,
2013-03-08 08:55:00,43.2,32.0,30.42,ENE,58,1.0,2.0,66,0.00,,,0.00,weatherlink.com 1.10,2013-03-08 14:55:00,
2013-03-08 09:10:00,44.5,33.0,30.40,ENE,78,1.0,5.0,65,0.00,,,0.00,weatherlink.com 1.10,2013-03-08 15:10:00,
2013-03-08 09:25:00,45.6,33.0,30.40,East,82,2.0,2.0,62,0.00,,,0.00,weatherlink.com 1.10,2013-03-08 15:25:00,
2013-03-08 09:55:00,47.9,33.0,30.40,East,82,1.0,4.0,57,0.00,,,0.00,weatherlink.com 1.10,2013-03-08 15:55:00,
2013-03-08 10:10:00,48.8,34.0,30.40,NNE,12,0.0,3.0,56,0.00,,,0.00,weatherlink.com 1.10,2013-03-08 16:10:00,
2013-03-08 10:25:00,50.5,35.0,30.40,East,97,2.0,2.0,55,0.00,,,0.00,weatherlink.com 1.10,2013-03-08 16:25:00,
2013-03-08 10:41:00,51.5,35.0,30.39,ENE,60,3.0,6.0,54,0.00,,,0.00,weatherlink.com 1.10,2013-03-08 16:41:00,
2013-03-08 10:56:00,52.5,35.0,30.39,NNW,327,0.0,4.0,52,0.00,,,0.00,weatherlink.com 1.10,2013-03-08 16:56:00,
2013-03-08 11:11:00,53.2,34.0,30.38,NE,47,0.0,4.0,48,0.00,,,0.00,weatherlink.com 1.10,2013-03-08 17:11:00,
2013-03-08 11:26:00,55.1,34.0,30.37,East,84,2.0,3.0,45,0.00,,,0.00,weatherlink.com 1.10,2013-03-08 17:26:00,
2013-03-08 11:41:00,55.5,34.0,30.37,East,84,2.0,3.0,44,0.00,,,0.00,weatherlink.com 1.10,2013-03-08 17:41:00,
2013-03-08 11:56:00,57.0,33.0,30.38,ESE,114,1.0,2.0,41,0.00,,,0.00,weatherlink.com 1.10,2013-03-08 17:56:00,
2013-03-08 12:11:00,57.8,33.0,30.36,NNE,20,2.0,4.0,40,0.00,,,0.00,weatherlink.com 1.10,2013-03-08 18:11:00,
2013-03-08 12:26:00,59.0,34.0,30.34,ENE,68,2.0,3.0,39,0.00,,,0.00,weatherlink.com 1.10,2013-03-08 18:26:00,
2013-03-08 12:41:00,60.1,34.0,30.33,NNE,32,1.0,4.0,37,0.00,,,0.00,weatherlink.com 1.10,2013-03-08 18:41:00,
2013-03-08 12:56:00,61.8,32.0,30.32,East,90,3.0,3.0,33,0.00,,,0.00,weatherlink.com 1.10,2013-03-08 18:56:00,
2013-03-08 13:11:00,61.4,31.0,30.31,SSW,203,0.0,5.0,32,0.00,,,0.00,weatherlink.com 1.10,2013-03-08 19:11:00,
2013-03-08 13:26:00,63.1,30.0,30.30,ENE,64,0.0,3.0,29,0.00,,,0.00,weatherlink.com 1.10,2013-03-08 19:26:00,
2013-03-08 13:41:00,64.1,31.0,30.30,ENE,75,1.0,3.0,29,0.00,,,0.00,weatherlink.com 1.10,2013-03-08 19:41:00,
2013-03-08 13:56:00,64.7,27.0,30.29,SE,125,1.0,3.0,24,0.00,,,0.00,weatherlink.com 1.10,2013-03-08 19:56:00,
2013-03-08 14:11:00,65.3,28.0,30.29,ENE,63,2.0,5.0,25,0.00,,,0.00,weatherlink.com 1.10,2013-03-08 20:11:00,
2013-03-08 14:26:00,65.1,27.0,30.29,SSW,203,1.0,4.0,24,0.00,,,0.00,weatherlink.com 1.10,2013-03-08 20:26:00,
2013-03-08 14:41:00,66.0,27.0,30.29,East,82,0.0,4.0,23,0.00,,,0.00,weatherlink.com 1.10,2013-03-08 20:41:00,
2013-03-08 14:56:00,66.1,25.0,30.29,WSW,245,1.0,2.0,21,0.00,,,0.00,weatherlink.com 1.10,2013-03-08 20:56:00,
2013-03-08 15:11:00,66.0,24.0,30.29,ENE,77,0.0,3.0,20,0.00,,,0.00,weatherlink.com 1.10,2013-03-08 21:11:00,
2013-03-08 15:26:00,67.0,26.0,30.28,SSW,194,1.0,3.0,21,0.00,,,0.00,weatherlink.com 1.10,2013-03-08 21:26:00,
2013-03-08 15:41:00,66.3,25.0,30.27,NW,313,1.0,3.0,21,0.00,,,0.00,weatherlink.com 1.10,2013-03-08 21:41:00,
2013-03-08 15:56:00,64.9,24.0,30.26,SW,224,0.0,2.0,21,0.00,,,0.00,weatherlink.com 1.10,2013-03-08 21:56:00,
2013-03-08 16:11:00,65.3,24.0,30.26,East,96,0.0,2.0,21,0.00,,,0.00,weatherlink.com 1.10,2013-03-08 22:11:00,
2013-03-08 16:26:00,64.9,24.0,30.26,East,98,0.0,1.0,21,0.00,,,0.00,weatherlink.com 1.10,2013-03-08 22:26:00,
2013-03-08 16:41:00,63.5,24.0,30.26,East,98,0.0,1.0,22,0.00,,,0.00,weatherlink.com 1.10,2013-03-08 22:41:00,
2013-03-08 16:57:00,62.4,24.0,30.25,ENE,75,0.0,1.0,23,0.00,,,0.00,weatherlink.com 1.10,2013-03-08 22:57:00,
2013-03-08 17:12:00,61.8,23.0,30.25,ENE,75,0.0,1.0,23,0.00,,,0.00,weatherlink.com 1.10,2013-03-08 23:12:00,
2013-03-08 17:27:00,61.1,23.0,30.26,ENE,75,0.0,0.0,23,0.00,,,0.00,weatherlink.com 1.10,2013-03-08 23:27:00,
2013-03-08 17:42:00,60.7,22.0,30.25,ENE,75,0.0,0.0,23,0.00,,,0.00,weatherlink.com 1.10,2013-03-08 23:42:00,
2013-03-08 17:57:00,60.1,23.0,30.25,ENE,75,0.0,0.0,24,0.00,,,0.00,weatherlink.com 1.10,2013-03-08 23:57:00,
2013-03-08 18:12:00,59.6,24.0,30.24,ENE,75,0.0,0.0,26,0.00,,,0.00,weatherlink.com 1.10,2013-03-09 00:12:00,
2013-03-08 18:27:00,59.0,25.0,30.23,ENE,75,0.0,0.0,27,0.00,,,0.00,weatherlink.com 1.10,2013-03-09 00:27:00,
2013-03-08 18:42:00,58.6,25.0,30.23,ENE,75,0.0,0.0,27,0.00,,,0.00,weatherlink.com 1.10,2013-03-09 00:42:00,
2013-03-08 18:57:00,58.3,24.0,30.23,ENE,74,0.0,0.0,27,0.00,,,0.00,weatherlink.com 1.10,2013-03-09 00:57:00,
2013-03-08 19:12:00,57.6,25.0,30.24,ENE,74,0.0,0.0,29,0.00,,,0.00,weatherlink.com 1.10,2013-03-09 01:12:00,
2013-03-08 19:27:00,57.1,26.0,30.24,ENE,74,0.0,0.0,30,0.00,,,0.00,weatherlink.com 1.10,2013-03-09 01:27:00,
2013-03-08 19:42:00,56.8,26.0,30.23,East,95,0.0,1.0,30,0.00,,,0.00,weatherlink.com 1.10,2013-03-09 01:42:00,
2013-03-08 19:57:00,56.5,24.0,30.25,ESE,113,0.0,1.0,29,0.00,,,0.00,weatherlink.com 1.10,2013-03-09 01:57:00,
2013-03-08 20:12:00,56.4,25.0,30.25,South,170,0.0,0.0,30,0.00,,,0.00,weatherlink.com 1.10,2013-03-09 02:12:00,
2013-03-08 20:27:00,56.0,26.0,30.24,South,170,0.0,0.0,31,0.00,,,0.00,weatherlink.com 1.10,2013-03-09 02:27:00,
2013-03-08 20:42:00,55.6,25.0,30.25,South,170,0.0,0.0,31,0.00,,,0.00,weatherlink.com 1.10,2013-03-09 02:42:00,
2013-03-08 20:56:00,55.4,27.0,30.26,South,170,0.0,0.0,33,0.00,,,0.00,weatherlink.com 1.10,2013-03-09 02:56:00,
2013-03-08 21:12:00,54.8,28.0,30.25,ENE,72,0.0,2.0,36,0.00,,,0.00,weatherlink.com 1.10,2013-03-09 03:12:00,
2013-03-08 21:27:00,54.5,26.0,30.24,ENE,72,0.0,1.0,34,0.00,,,0.00,weatherlink.com 1.10,2013-03-09 03:27:00,
2013-03-08 21:42:00,53.8,27.0,30.24,ENE,72,0.0,0.0,35,0.00,,,0.00,weatherlink.com 1.10,2013-03-09 03:42:00,
2013-03-08 21:57:00,53.2,28.0,30.23,ENE,72,0.0,0.0,38,0.00,,,0.00,weatherlink.com 1.10,2013-03-09 03:57:00,
2013-03-08 22:12:00,52.2,26.0,30.24,ENE,72,0.0,0.0,37,0.00,,,0.00,weatherlink.com 1.10,2013-03-09 04:12:00,
2013-03-08 22:27:00,51.9,27.0,30.24,ENE,72,0.0,0.0,38,0.00,,,0.00,weatherlink.com 1.10,2013-03-09 04:27:00,
2013-03-08 22:42:00,50.9,27.0,30.24,ENE,72,0.0,0.0,39,0.00,,,0.00,weatherlink.com 1.10,2013-03-09 04:42:00,
2013-03-08 22:57:00,50.2,28.0,30.24,ENE,72,0.0,0.0,43,0.00,,,0.00,weatherlink.com 1.10,2013-03-09 04:57:00,
2013-03-08 23:12:00,49.5,29.0,30.23,ENE,72,0.0,0.0,45,0.00,,,0.00,weatherlink.com 1.10,2013-03-09 05:12:00,
2013-03-08 23:27:00,49.4,30.0,30.22,ENE,72,0.0,0.0,47,0.00,,,0.00,weatherlink.com 1.10,2013-03-09 05:27:00,
2013-03-08 23:42:00,50.5,28.0,30.21,ENE,72,0.0,1.0,42,0.00,,,0.00,weatherlink.com 1.10,2013-03-09 05:42:00,
2013-03-08 23:57:00,50.8,28.0,30.21,ENE,72,0.0,0.0,41,0.00,,,0.00,weatherlink.com 1.10,2013-03-09 05:57:00,